This is the latest recevied weather packets stored in our database for station/object OH3FZQ-L1. If no packets are shown the sender has not sent any weather packets the latest 10 day(s).
| Time | Temp. | Humidity | Pressure | Rain* | Wind** | Luminosity | Snow |
|---|---|---|---|---|---|---|---|
| 1777834085 | 23.33° C | 45% | 1000 hPa | - | - | - | - |
| 1777833185 | 23.89° C | 45% | 1000 hPa | - | - | - | - |
| 1777832285 | 23.89° C | 46% | 999.9 hPa | - | - | - | - |
| 1777831385 | 23.89° C | 47% | 999.8 hPa | - | - | - | - |
| 1777830485 | 24.44° C | 47% | 999.7 hPa | - | - | - | - |
| 1777830303 | 24.44° C | 47% | 999.8 hPa | - | - | - | - |
| 1777829403 | 24.44° C | 48% | 999.6 hPa | - | - | - | - |
| 1777828503 | 24.44° C | 48% | 999.6 hPa | - | - | - | - |
| 1777827603 | 25° C | 48% | 999.6 hPa | - | - | - | - |
| 1777826703 | 25° C | 50% | 999.5 hPa | - | - | - | - |
| 1777825803 | 25° C | 51% | 999.5 hPa | - | - | - | - |
| 1777824903 | 25° C | 45% | 999.5 hPa | - | - | - | - |
| 1777824186 | 25° C | 45% | 999.6 hPa | - | - | - | - |
| 1777823286 | 25° C | 44% | 999.6 hPa | - | - | - | - |
| 1777822386 | 25° C | 41% | 999.7 hPa | - | - | - | - |
| 1777821486 | 25° C | 43% | 999.7 hPa | - | - | - | - |
| 1777820586 | 24.44° C | 43% | 999.7 hPa | - | - | - | - |
| 1777819686 | 24.44° C | 44% | 999.7 hPa | - | - | - | - |
| 1777818786 | 24.44° C | 44% | 999.7 hPa | - | - | - | - |
| 1777817886 | 24.44° C | 44% | 999.7 hPa | - | - | - | - |
| 1777816986 | 24.44° C | 44% | 999.9 hPa | - | - | - | - |
| 1777816085 | 24.44° C | 43% | 999.9 hPa | - | - | - | - |
| 1777815185 | 24.44° C | 43% | 1000.1 hPa | - | - | - | - |
| 1777814285 | 24.44° C | 42% | 1000.1 hPa | - | - | - | - |
| 1777813385 | 23.89° C | 40% | 1000.1 hPa | - | - | - | - |
* Rain since midnight (hover to see other rain measurements)
** Current wind speed in m/s (hover to see current wind gust speed)